Fort Campbell, KY

4:28 PM CDT on May 23, 2017 (GMT -0500)
Campbell Army Air Field

Weather History for KHOP - February, 2014

Change the Weather History Date:

Sunday, February 23, 2014

  Actual Average Record
Temperature  
Mean Temperature 41 °F -  
Max Temperature 52 °F 50 °F 76 °F (2012)
Min Temperature 29 °F 31 °F 15 °F (2015)
Degree Days  
Heating Degree Days 24    
Moisture  
Dew Point 32 °F    
Average Humidity 63    
Maximum Humidity 95    
Minimum Humidity 35    
Precipitation  
Precipitation 0.00 in - - ()
Sea Level Pressure  
Sea Level Pressure 30.09 in    
Wind  
Wind Speed 10 mph (North)    
Max Wind Speed 20 mph    
Max Gust Speed 23 mph    
Visibility 10 miles    
Events      
Averages and records for this station are not official NWS values.
T = Trace of Precipitation, MM = Missing Value Source: NWS Daily Summary

Daily Weather History Graph

Daily Weather History Graph

Search for Another Location

Airport or City:

Trip Planner

Search our weather history database for the weather conditions in past years. The results will help you decide how hot, cold, wet, or windy it might be!

Date:

Astronomy

Feb. 23, 2014 Rise Set
Actual Time 6:28 AM CST 5:38 PM CST
Civil Twilight 6:02 AM CST 6:04 PM CST
Nautical Twilight 5:32 AM CST 6:34 PM CST
Astronomical Twilight 5:02 AM CST 7:04 PM CST
Moon 1:21 AM CST 11:45 AM CST
Length of Visible Light 12h 02m
Length of Day
11h 10m
Last Quarter, 38% of the Moon is Illuminated
Feb 23
Last Quarter
Mar 1
New
Mar 8
First Quarter
Mar 16
Full
Mar 23
Last Quarter

Hourly Weather History & Observations

Time (CST) Temp. Windchill Dew Point Humidity Pressure Visibility Wind Dir Wind Speed Gust Speed Precip Events Conditions
12:58 AM 49.1 °F - 25.3 °F 40% 29.99 in 10.0 mi SW 6.9 mph - N/A   Overcast
1:58 AM 48.2 °F - 26.1 °F 42% 29.99 in 10.0 mi SW 8.1 mph - N/A   Overcast
2:58 AM 50.4 °F - 24.8 °F 37% 29.99 in 10.0 mi SSW 6.9 mph - N/A   Overcast
3:58 AM 51.8 °F - 25.0 °F 35% 29.98 in 10.0 mi South 6.9 mph - N/A   Mostly Cloudy
4:58 AM 45.3 °F 44.0 °F 28.6 °F 52% 29.99 in 10.0 mi SE 3.5 mph - N/A   Clear
5:58 AM 45.5 °F 41.8 °F 28.4 °F 51% 30.00 in 10.0 mi SSE 6.9 mph - N/A   Clear
6:58 AM 44.8 °F 41.6 °F 29.3 °F 55% 30.01 in 10.0 mi SSE 5.8 mph - N/A   Clear
7:58 AM 50.7 °F - 30.4 °F 46% 30.02 in 10.0 mi SSW 2.3 mph - N/A   Clear
8:58 AM 50.0 °F - 33.8 °F 54% 30.04 in 10.0 mi North 10.4 mph - N/A   Clear
9:58 AM 47.1 °F - 33.4 °F 59% 30.06 in 10.0 mi North 12.7 mph - N/A   Clear
10:58 AM 49.6 °F - 34.2 °F 55% 30.07 in 10.0 mi North 11.5 mph - N/A   Partly Cloudy
11:58 AM 51.8 °F - 34.5 °F 52% 30.06 in 10.0 mi North 10.4 mph 17.3 mph N/A   Partly Cloudy
12:58 PM 52.0 °F - 34.9 °F 52% 30.06 in 10.0 mi North 12.7 mph 20.7 mph N/A   Partly Cloudy
1:58 PM 51.6 °F - 36.0 °F 55% 30.06 in 10.0 mi North 16.1 mph 20.7 mph N/A   Mostly Cloudy
2:58 PM 50.4 °F - 36.7 °F 59% 30.08 in 10.0 mi North 17.3 mph 23.0 mph N/A   Mostly Cloudy
3:58 PM 48.2 °F - 35.6 °F 62% 30.08 in 10.0 mi North 16.1 mph - N/A   Mostly Cloudy
4:43 PM 46.4 °F 41.1 °F 35.6 °F 66% 30.10 in 10.0 mi NNW 11.5 mph - N/A   Light Drizzle
4:58 PM 44.6 °F 38.4 °F 36.3 °F 73% 30.13 in 10.0 mi North 12.7 mph 21.9 mph 0.00 in   Light Drizzle
5:19 PM 42.8 °F 35.4 °F 37.4 °F 81% 30.11 in 10.0 mi North 15.0 mph 23.0 mph N/A   Overcast
5:20 PM 42.8 °F 36.6 °F 37.4 °F 81% 30.12 in 10.0 mi North 11.5 mph 23.0 mph N/A   Light Drizzle
5:21 PM 42.8 °F 36.2 °F 37.4 °F 81% 30.12 in 10.0 mi North 12.7 mph 23.0 mph N/A   Overcast
5:26 PM 42.8 °F 35.8 °F 37.4 °F 81% 30.11 in 10.0 mi North 13.8 mph 23.0 mph N/A   Light Drizzle
5:58 PM 40.5 °F 32.1 °F 39.0 °F 95% 30.14 in 10.0 mi North 16.1 mph - 0.00 in   Light Drizzle
6:02 PM 41.0 °F 31.9 °F 37.4 °F 87% 30.14 in 10.0 mi North 19.6 mph - N/A   Overcast
6:58 PM 37.6 °F 29.6 °F 34.0 °F 87% 30.18 in 10.0 mi North 12.7 mph - 0.00 in   Overcast
7:58 PM 36.1 °F 26.5 °F 31.5 °F 83% 30.19 in 10.0 mi North 16.1 mph - N/A   Mostly Cloudy
8:58 PM 34.0 °F 25.0 °F 24.6 °F 69% 30.22 in 10.0 mi North 12.7 mph - N/A   Scattered Clouds
9:58 PM 31.8 °F 23.3 °F 23.0 °F 70% 30.25 in 10.0 mi North 10.4 mph - N/A   Clear
10:58 PM 30.2 °F 22.6 °F 21.2 °F 69% 30.26 in 10.0 mi North 8.1 mph - N/A   Clear
11:58 PM 29.3 °F 23.2 °F 19.8 °F 68% 30.27 in 10.0 mi North 5.8 mph - N/A   Clear